Date String (YYYY-MM-DD hh:mm:ss) UTC,Instrument flags,Ambient pressure (hPa),Sample flow (lpm),Bypass flow (lpm),Sample temperature (°C),Ambient temperature (°C),ASC tube jacket temperature (°C),LED temperature (°C),Box temperature (°C),Sample RH (%),Span deviation,Mass concentration (μg/m³),Mass concentration (μg/m³),Mass concentration (μg/m³)
DateTimeUTC,F1_M11,P_M11,Q1_M11,Q2_M11,T1_M11,T2_M11,T3_M11,T4_M11,T5_M11,U1_M11,ZSPAN_M11,X2_M11,X0_M11,X1_M11
2021-12-31 15:00:00,,0810.1,5.00,0.00,21.6,22.8,00.0,30.5,23.6,12.7,0000.0,0002.69,0010.68,0001.12
2021-12-31 15:01:00,,0810.2,5.00,0.00,21.7,22.6,00.0,30.5,23.6,12.5,0000.0,0002.73,0010.46,0001.12
2021-12-31 15:02:00,,0810.2,4.99,0.00,21.7,22.3,00.0,30.6,23.5,12.4,0000.0,0002.71,0010.42,0001.12
2021-12-31 15:03:00,,0810.2,5.00,0.00,21.7,22.0,00.0,30.6,23.4,12.4,0000.0,0002.64,0010.19,0001.13
2021-12-31 15:04:00,,0810.2,5.00,0.00,21.6,21.7,00.0,30.6,23.3,12.5,0000.0,0002.63,0009.88,0001.14
2021-12-31 15:05:00,,0810.2,5.00,0.00,21.6,21.5,00.0,30.6,23.2,12.5,0000.0,0002.71,0009.81,0001.15
2021-12-31 15:06:00,,0810.2,5.00,0.00,21.6,21.3,00.0,30.6,23.2,12.6,0000.0,0002.64,0009.58,0001.14
2021-12-31 15:07:00,,0810.2,5.00,0.00,21.5,21.2,00.0,30.6,23.1,12.7,0000.0,0002.60,0009.47,0001.14
2021-12-31 15:08:00,,0810.2,4.99,0.00,21.5,21.0,00.0,30.6,23.0,12.8,0000.0,0002.60,0009.32,0001.14
2021-12-31 15:09:00,,0810.2,5.00,0.00,21.5,20.9,00.0,30.6,23.0,13.0,0000.0,0002.51,0008.96,0001.12
2021-12-31 15:10:00,,0810.2,5.00,0.00,21.4,20.8,00.0,30.6,23.0,13.2,0000.0,0002.37,0008.66,0001.10
2021-12-31 15:11:00,,0810.2,4.99,0.00,21.4,20.7,00.0,30.5,22.9,13.5,0000.0,0002.27,0008.05,0001.07
2021-12-31 15:12:00,,0810.2,5.00,0.00,21.3,20.5,00.0,30.5,22.8,13.7,0000.0,0002.17,0008.23,0001.03
2021-12-31 15:13:00,,0810.2,5.00,0.00,21.2,20.4,00.0,30.5,22.7,13.8,0000.0,0002.09,0008.03,0000.98
2021-12-31 15:14:00,,0810.2,4.99,0.00,21.2,20.3,00.0,30.5,22.6,14.0,0000.0,0002.07,0007.91,0000.93
2021-12-31 15:15:00,,0810.2,5.00,0.00,21.1,20.2,00.0,30.4,22.5,14.1,0000.0,0002.04,0007.76,0000.89
2021-12-31 15:16:00,,0810.2,5.00,0.00,21.1,20.7,00.0,30.4,22.7,14.1,0000.0,0001.91,0007.03,0000.86
2021-12-31 15:17:00,,0810.2,5.00,0.00,21.3,21.7,00.0,30.4,23.1,14.1,0000.0,0001.87,0007.57,0000.83
2021-12-31 15:18:00,,0810.2,5.00,0.00,21.5,22.5,00.0,30.5,23.4,13.9,0000.0,0001.87,0007.75,0000.81
2021-12-31 15:19:00,,0810.3,5.00,0.00,21.6,22.5,00.0,30.5,23.5,13.8,0000.0,0001.83,0008.02,0000.78
2021-12-31 15:20:00,,0810.3,5.01,0.00,21.6,22.1,00.0,30.5,23.4,13.8,0000.0,0001.83,0008.13,0000.77
2021-12-31 15:21:00,,0810.4,5.00,0.00,21.5,21.7,00.0,30.5,23.2,13.9,0000.0,0001.88,0008.16,0000.77
2021-12-31 15:22:00,,0810.3,4.99,0.00,21.5,21.4,00.0,30.5,23.1,14.0,0000.0,0001.85,0007.95,0000.78
2021-12-31 15:23:00,,0810.4,5.01,0.00,21.4,21.2,00.0,30.5,23.0,14.0,0000.0,0001.79,0006.88,0000.80
2021-12-31 15:24:00,,0810.4,5.00,0.00,21.4,20.9,00.0,30.5,22.9,14.1,0000.0,0001.83,0007.09,0000.83
2021-12-31 15:25:00,,0810.5,5.00,0.00,21.3,20.7,00.0,30.5,22.8,14.1,0000.0,0001.91,0007.33,0000.90
2021-12-31 15:26:00,,0810.5,5.00,0.00,21.3,20.6,00.0,30.5,22.7,14.2,0000.0,0002.06,0008.36,0001.02
2021-12-31 15:27:00,,0810.4,5.00,0.00,21.2,20.5,00.0,30.4,22.6,14.3,0000.0,0002.26,0008.59,0001.16
2021-12-31 15:28:00,,0810.4,5.01,0.00,21.1,20.3,00.0,30.4,22.6,14.4,0000.0,0002.52,0008.33,0001.34
2021-12-31 15:29:00,,0810.4,5.01,0.00,21.1,20.2,00.0,30.4,22.5,14.5,0000.0,0002.76,0008.46,0001.55
2021-12-31 15:30:00,,0810.4,4.99,0.00,21.0,20.3,00.0,30.3,22.5,14.5,0000.0,0003.02,0008.33,0001.76
2021-12-31 15:31:00,,0810.5,5.01,0.00,21.1,21.3,00.0,30.4,22.8,14.5,0000.0,0003.23,0008.99,0001.96
2021-12-31 15:32:00,,0810.5,5.00,0.00,21.3,22.3,00.0,30.4,23.2,14.4,0000.0,0003.36,0009.74,0002.15
2021-12-31 15:33:00,,0810.6,4.99,0.00,21.5,22.7,00.0,30.4,23.4,14.4,0000.0,0003.45,0010.51,0002.26
2021-12-31 15:34:00,,0810.6,5.01,0.00,21.5,22.2,00.0,30.5,23.3,14.4,0000.0,0003.53,0011.04,0002.33
2021-12-31 15:35:00,,0810.7,4.99,0.00,21.5,21.7,00.0,30.5,23.2,14.5,0000.0,0003.53,0011.26,0002.37
2021-12-31 15:36:00,,0810.8,5.00,0.00,21.4,21.3,00.0,30.5,23.0,14.6,0000.0,0003.48,0011.23,0002.35
2021-12-31 15:37:00,,0810.9,5.00,0.00,21.4,21.0,00.0,30.4,22.8,14.7,0000.0,0003.41,0010.32,0002.27
2021-12-31 15:38:00,,0811.0,5.01,0.00,21.3,20.8,00.0,30.4,22.8,14.8,0000.0,0003.30,0010.19,0002.20
2021-12-31 15:39:00,,0811.0,5.00,0.00,21.2,20.7,00.0,30.4,22.7,14.9,0000.0,0003.24,0010.34,0002.10
2021-12-31 15:40:00,,0810.9,4.99,0.00,21.2,20.6,00.0,30.4,22.6,15.0,0000.0,0003.16,0010.21,0001.99
2021-12-31 15:41:00,,0811.0,4.99,0.00,21.1,20.4,00.0,30.4,22.5,15.2,0000.0,0003.02,0010.40,0001.86
2021-12-31 15:42:00,,0811.1,5.01,0.00,21.0,20.3,00.0,30.3,22.4,15.3,0000.0,0002.83,0010.09,0001.74
2021-12-31 15:43:00,,0811.1,4.99,0.00,21.0,20.2,00.0,30.3,22.4,15.5,0000.0,0002.60,0009.21,0001.63
2021-12-31 15:44:00,,0811.1,5.00,0.00,21.0,20.9,00.0,30.3,22.6,15.5,0000.0,0002.47,0008.42,0001.60
2021-12-31 15:45:00,,0811.2,5.00,0.00,21.2,21.9,00.0,30.3,23.0,15.4,0000.0,0002.40,0007.89,0001.62
2021-12-31 15:46:00,,0811.2,5.01,0.00,21.4,22.5,00.0,30.4,23.3,15.4,0000.0,0002.38,0007.53,0001.62
2021-12-31 15:47:00,,0811.2,4.99,0.00,21.4,22.2,00.0,30.4,23.2,15.4,0000.0,0002.36,0006.88,0001.62
2021-12-31 15:48:00,,0811.2,5.00,0.00,21.4,21.8,00.0,30.4,23.0,15.5,0000.0,0002.30,0006.69,0001.60
2021-12-31 15:49:00,,0811.1,5.01,0.00,21.3,21.4,00.0,30.4,22.9,15.7,0000.0,0002.28,0006.66,0001.57
2021-12-31 15:50:00,,0811.1,5.00,0.00,21.3,21.2,00.0,30.4,22.8,15.8,0000.0,0002.16,0005.45,0001.53
2021-12-31 15:51:00,,0811.2,4.98,0.00,21.2,21.0,00.0,30.4,22.8,15.9,0000.0,0002.07,0005.55,0001.51
2021-12-31 15:52:00,,0811.2,5.02,0.00,21.2,20.8,00.0,30.3,22.7,15.9,0000.0,0002.17,0006.70,0001.57
2021-12-31 15:53:00,,0811.2,5.00,0.00,21.1,20.6,00.0,30.3,22.6,16.0,0000.0,0002.26,0006.31,0001.69
2021-12-31 15:54:00,,0811.2,5.00,0.00,21.1,20.4,00.0,30.3,22.5,16.2,0000.0,0002.36,0007.08,0001.80
2021-12-31 15:55:00,,0811.3,5.00,0.00,21.0,20.3,00.0,30.3,22.5,16.3,0000.0,0002.59,0007.44,0001.92
2021-12-31 15:56:00,,0811.3,5.01,0.00,21.0,20.3,00.0,30.3,22.4,16.4,0000.0,0002.84,0007.82,0002.05
2021-12-31 15:57:00,,0811.4,4.99,0.00,20.9,20.3,00.0,30.2,22.4,16.5,0000.0,0003.10,0008.33,0002.25
2021-12-31 15:58:00,,0811.5,5.00,0.00,21.0,21.0,00.0,30.2,22.6,16.5,0000.0,0003.27,0009.18,0002.44
2021-12-31 15:59:00,,0811.6,5.00,0.00,21.2,22.0,00.0,30.3,23.0,16.3,0000.0,0003.41,0009.39,0002.65
